Terminal Aerodrome Forecast
Issued by NWS Blacksburg, VA

Current Version | Previous Version | Text Only | Print | Product List | Glossary Off
Versions: 1 2 3 4 5 6 7 8 9 10 11 12 13 14 15 16 17 18 19 20 21 22 23 24 25 26 27 28 29 30 31 32 33 34 35 36 37 38 39 40 41 42 43 44 45 46 47 48 49 50

000
FTUS41 KRNK 241139
TAFBLF
TAF
KBLF 241139Z 2412/2512 16012G20KT P6SM -RA SCT008 OVC040
     FM241900 19010KT P6SM OVC025
     FM250000 25012G22KT P6SM -SHRA SCT005 OVC015
     FM250300 28014G24KT P6SM OVC025
     FM250800 29018G30KT P6SM OVC020=

USA.gov is the U.S. government's official web portal to all federal, state and local government web resources and services.